This is the latest recevied weather packets stored in our database for station/object N5JXS. If no packets are shown the sender has not sent any weather packets the latest 10 day(s).
| Time | Temp. | Humidity | Pressure | Rain* | Wind** | Luminosity | Snow |
|---|---|---|---|---|---|---|---|
| 1777936543 | 13.89° C | 37% | 1013 hPa | 0 mm | - | 138 W/m² | - |
| 1777936240 | 13.89° C | 37% | 1012.9 hPa | 0 mm | - | 124 W/m² | - |
| 1777935936 | 13.89° C | 37% | 1012.8 hPa | 0 mm | - | 140 W/m² | - |
| 1777935635 | 13.89° C | 39% | 1013 hPa | 0 mm | - | 145 W/m² | - |
| 1777935332 | 13.89° C | 39% | 1013.1 hPa | 0 mm | - | 170 W/m² | - |
| 1777935029 | 14.44° C | 37% | 1013 hPa | 0 mm | - | 149 W/m² | - |
| 1777934725 | 14.44° C | 35% | 1013 hPa | 0 mm | - | 90 W/m² | - |
| 1777934423 | 15° C | 34% | 1012.8 hPa | 0 mm | - | 73 W/m² | - |
| 1777934119 | 15.56° C | 32% | 1012.4 hPa | 0 mm | - | 68 W/m² | - |
| 1777933815 | 15.56° C | 31% | 1012.6 hPa | 0 mm | - | 73 W/m² | - |
| 1777933512 | 15.56° C | 30% | 1012.6 hPa | 0 mm | - | 71 W/m² | - |
| 1777933210 | 15.56° C | 31% | 1012.8 hPa | 0 mm | - | 67 W/m² | - |
| 1777932907 | 16.11° C | 30% | 1012.5 hPa | 0 mm | - | 60 W/m² | - |
| 1777932604 | 16.11° C | 30% | 1012.5 hPa | 0 mm | - | 69 W/m² | - |
| 1777932300 | 16.11° C | 30% | 1012.5 hPa | 0 mm | - | 72 W/m² | - |
| 1777931997 | 16.11° C | 30% | 1012.5 hPa | 0 mm | - | 75 W/m² | - |
| 1777931693 | 16.67° C | 31% | 1012.4 hPa | 0 mm | - | 90 W/m² | - |
| 1777931390 | 16.67° C | 30% | 1012.5 hPa | 0 mm | - | 100 W/m² | - |
| 1777931086 | 16.67° C | 28% | 1012.3 hPa | 0 mm | - | 129 W/m² | - |
| 1777930783 | 16.67° C | 27% | 1012.1 hPa | 0 mm | - | 184 W/m² | - |
| 1777930479 | 16.67° C | 27% | 1012.5 hPa | 0 mm | - | 137 W/m² | - |
| 1777930177 | 16.67° C | 27% | 1012.3 hPa | 0 mm | - | 129 W/m² | - |
| 1777929872 | 16.67° C | 26% | 1012.5 hPa | 0 mm | - | 131 W/m² | - |
| 1777929571 | 16.67° C | 25% | 1012.5 hPa | 0 mm | - | 124 W/m² | - |
| 1777929266 | 16.67° C | 26% | 1012.4 hPa | 0 mm | - | 138 W/m² | - |
* Rain latest hour (hover to see other rain measurements)
** Current wind speed in m/s (hover to see current wind gust speed)